{"data":{"norad_id":67206,"intl_designator":"2025-304Q","name":"STARLINK-36056","alt_names":[],"object_type":"PAYLOAD","status":"ACTIVE","operator":null,"country":"US","launch_date":"2025-12-17","launch_site_code":"AFWTR","launch_vehicle":null,"mission":null,"orbit_class":"UNKNOWN","rcs_meters":null,"size_class":null,"mass_kg":null,"dimensions":null,"purposes":["comms"],"wikipedia_slug":null,"has_3d_model":false,"image_url":null,"decayed_at":null,"tle_current":{"epoch":"2026-09-20T13:56:31.487136Z","epoch_age_seconds":71294,"freshness":"FRESH","line1":"1 67206U 25304Q   26263.58091999  .00002729  00000+0  23639-3 0  9999","line2":"2 67206  70.0017  43.2167 0003531 269.9668  90.1087 14.98337837 43048","mean_motion":14.98337837,"eccentricity":0.0003531,"inclination_deg":70.0017,"raan_deg":43.2167,"arg_perigee_deg":269.9668,"mean_anomaly_deg":90.1087,"bstar":0.00023639,"rev_number":4304,"period_min":96.10649644163,"perigee_km":569.57755122167,"apogee_km":574.48576032638,"semimajor_km":6950.168655774,"source":"CELESTRAK","updated_at":"2026-09-21T09:00:36.138109Z"}}}